SKW5422 KMRY-KLAX

Flight info

Callsign SKW5422
Flight time 0h 47m
Altitude 27000
Route SNS BURGL IRNMN2
Aircraft E175/M-SDE3GILORVW/S

Departure

Time 2026-04-20 04:54
Airport Monterey Regional Airport (KMRY)

Arrival

Time 2026-04-20 05:41
Airport Los Angeles International Airport (KLAX)
Time Latitude Longitude Altitude Speed Heading
2026-04-20 04:40 36.58532 -121.84494 236 ft 0 kts 201°
2026-04-20 04:49 36.58542 -121.84489 212 ft 3 kts 201°
2026-04-20 04:49 36.58559 -121.84481 216 ft 3 kts 201°
2026-04-20 04:50 36.58575 -121.84473 213 ft 3 kts 201°
2026-04-20 04:50 36.58584 -121.84468 216 ft 0 kts 201°
2026-04-20 04:50 36.58584 -121.84469 217 ft 1 kts 203°
2026-04-20 04:50 36.58582 -121.84469 217 ft 0 kts 185°
2026-04-20 04:51 36.58580 -121.84468 216 ft 1 kts 163°
2026-04-20 04:51 36.58581 -121.84424 207 ft 14 kts 83°
2026-04-20 04:51 36.58540 -121.84243 207 ft 31 kts 112°
2026-04-20 04:51 36.58451 -121.83980 212 ft 30 kts 113°
2026-04-20 04:52 36.58369 -121.83741 211 ft 30 kts 113°
2026-04-20 04:52 36.58289 -121.83498 210 ft 27 kts 103°
2026-04-20 04:52 36.58321 -121.83378 213 ft 11 kts
2026-04-20 04:52 36.58363 -121.83439 207 ft 9 kts 294°
2026-04-20 04:53 36.58391 -121.83516 210 ft 11 kts 294°
2026-04-20 04:53 36.58442 -121.83665 209 ft 46 kts 291°
2026-04-20 04:53 36.58678 -121.84365 211 ft 127 kts 293°
2026-04-20 04:53 36.59102 -121.85618 428 ft 179 kts 292°
2026-04-20 04:54 36.59703 -121.87121 1142 ft 212 kts 300°
2026-04-20 04:54 36.60699 -121.88729 1848 ft 251 kts 315°
2026-04-20 04:54 36.62349 -121.89782 2731 ft 289 kts 346°
2026-04-20 04:54 36.64476 -121.89848 3655 ft 327 kts 12°
2026-04-20 04:55 36.66595 -121.88666 4838 ft 346 kts 38°
2026-04-20 04:55 36.68310 -121.86401 5762 ft 376 kts 60°
2026-04-20 04:55 36.69245 -121.83452 6527 ft 351 kts 84°
2026-04-20 04:55 36.69186 -121.80578 7207 ft 318 kts 105°
2026-04-20 04:56 36.68815 -121.77952 7883 ft 297 kts 104°
2026-04-20 04:56 36.68460 -121.75499 8549 ft 280 kts 104°
2026-04-20 04:56 36.68141 -121.73178 9215 ft 257 kts 104°
2026-04-20 04:56 36.67849 -121.71032 9903 ft 251 kts 105°
2026-04-20 04:57 36.67545 -121.68879 10564 ft 252 kts 109°
2026-04-20 04:57 36.66795 -121.66993 11251 ft 240 kts 134°
2026-04-20 04:57 36.65714 -121.65414 11972 ft 239 kts 137°
2026-04-20 04:57 36.64595 -121.63882 12700 ft 240 kts 139°
2026-04-20 04:58 36.63458 -121.62354 13463 ft 240 kts 139°
2026-04-20 04:58 36.62305 -121.60816 14062 ft 247 kts 139°
2026-04-20 04:58 36.61153 -121.59216 14582 ft 257 kts 136°
2026-04-20 04:58 36.60019 -121.57449 15128 ft 266 kts 135°
2026-04-20 04:59 36.58868 -121.55604 15686 ft 274 kts 134°
2026-04-20 04:59 36.57689 -121.53702 16264 ft 281 kts 134°
2026-04-20 04:59 36.56473 -121.51752 16819 ft 288 kts 134°
2026-04-20 04:59 36.55225 -121.49764 17434 ft 295 kts 134°
2026-04-20 05:00 36.53943 -121.47716 17920 ft 306 kts 134°
2026-04-20 05:00 36.52614 -121.45587 18383 ft 317 kts 134°
2026-04-20 05:00 36.51240 -121.43387 18800 ft 327 kts 134°
2026-04-20 05:00 36.49820 -121.41116 19225 ft 338 kts 134°
2026-04-20 05:01 36.48354 -121.38776 19642 ft 349 kts 134°
2026-04-20 05:01 36.46861 -121.36394 20069 ft 359 kts 134°
2026-04-20 05:01 36.45310 -121.33919 20500 ft 365 kts 134°
2026-04-20 05:01 36.43751 -121.31433 20928 ft 365 kts 134°
2026-04-20 05:02 36.42184 -121.28940 21347 ft 368 kts 134°
2026-04-20 05:02 36.40602 -121.26426 21782 ft 371 kts 134°
2026-04-20 05:02 36.39004 -121.23888 22212 ft 374 kts 134°
2026-04-20 05:02 36.37394 -121.21335 22667 ft 378 kts 133°
2026-04-20 05:03 36.35772 -121.18754 23118 ft 381 kts 134°
2026-04-20 05:03 36.34131 -121.16155 23571 ft 384 kts 134°
2026-04-20 05:03 36.32476 -121.13534 23951 ft 387 kts 133°
2026-04-20 05:03 36.30809 -121.10895 24348 ft 390 kts 133°
2026-04-20 05:04 36.29126 -121.08234 24743 ft 394 kts 134°
2026-04-20 05:04 36.27426 -121.05546 24912 ft 397 kts 133°
2026-04-20 05:04 36.25719 -121.02849 24977 ft 396 kts 134°
2026-04-20 05:04 36.24041 -121.00202 25007 ft 397 kts 134°
2026-04-20 05:05 36.22308 -120.97477 25035 ft 411 kts 133°
2026-04-20 05:05 36.20509 -120.94643 25040 ft 427 kts 133°
2026-04-20 05:05 36.18648 -120.91711 25056 ft 439 kts 133°
2026-04-20 05:05 36.16754 -120.88724 25059 ft 440 kts 133°
2026-04-20 05:06 36.14864 -120.85753 25042 ft 439 kts 133°
2026-04-20 05:06 36.12974 -120.82787 25021 ft 438 kts 133°
2026-04-20 05:06 36.11085 -120.79825 25003 ft 438 kts 133°
2026-04-20 05:06 36.09196 -120.76865 24988 ft 438 kts 133°
2026-04-20 05:07 36.07308 -120.73905 24985 ft 438 kts 133°
2026-04-20 05:07 36.05414 -120.70945 24969 ft 438 kts 133°
2026-04-20 05:07 36.03743 -120.68334 24975 ft 441 kts 133°
2026-04-20 05:07 36.01844 -120.65365 24988 ft 440 kts 133°
2026-04-20 05:08 35.99944 -120.62399 24989 ft 441 kts 133°
2026-04-20 05:08 35.98043 -120.59434 24983 ft 440 kts 133°
2026-04-20 05:08 35.96141 -120.56472 24980 ft 440 kts 133°
2026-04-20 05:08 35.94265 -120.53550 24982 ft 440 kts 133°
2026-04-20 05:09 35.92362 -120.50593 24977 ft 440 kts 133°
2026-04-20 05:09 35.90455 -120.47629 24971 ft 440 kts 133°
2026-04-20 05:09 35.88545 -120.44663 24978 ft 443 kts 133°
2026-04-20 05:09 35.86631 -120.41693 24985 ft 442 kts 133°
2026-04-20 05:10 35.84716 -120.38727 24982 ft 441 kts 133°
2026-04-20 05:10 35.82807 -120.35768 24988 ft 441 kts 133°
2026-04-20 05:10 35.80892 -120.32806 24988 ft 441 kts 133°
2026-04-20 05:10 35.78978 -120.29845 24979 ft 441 kts 133°
2026-04-20 05:11 35.77062 -120.26886 24976 ft 441 kts 133°
2026-04-20 05:11 35.75148 -120.23932 24967 ft 441 kts 133°
2026-04-20 05:11 35.73249 -120.21007 24963 ft 444 kts 133°
2026-04-20 05:11 35.71324 -120.18038 24972 ft 443 kts 133°
2026-04-20 05:12 35.69399 -120.15076 24954 ft 443 kts 133°
2026-04-20 05:12 35.67455 -120.12130 24956 ft 442 kts 135°
2026-04-20 05:12 35.65202 -120.09639 24951 ft 432 kts 150°
2026-04-20 05:12 35.62627 -120.07764 24973 ft 431 kts 153°
2026-04-20 05:13 35.60071 -120.05844 24961 ft 431 kts 152°
2026-04-20 05:13 35.57506 -120.03917 24939 ft 434 kts 152°
2026-04-20 05:13 35.54933 -120.01975 24953 ft 433 kts 152°
2026-04-20 05:13 35.52361 -120.00034 24958 ft 433 kts 152°
2026-04-20 05:14 35.49791 -119.98101 24954 ft 433 kts 152°
2026-04-20 05:14 35.47224 -119.96170 25279 ft 433 kts 150°
2026-04-20 05:14 35.44657 -119.94242 24921 ft 429 kts 151°
2026-04-20 05:14 35.42105 -119.92323 24922 ft 432 kts 152°
2026-04-20 05:15 35.39535 -119.90396 24927 ft 436 kts 152°
2026-04-20 05:15 35.36951 -119.88460 24935 ft 435 kts 152°
2026-04-20 05:15 35.34408 -119.86553 24938 ft 434 kts 152°
2026-04-20 05:15 35.31828 -119.84624 24943 ft 435 kts 152°
2026-04-20 05:16 35.29259 -119.82663 24917 ft 436 kts 149°
2026-04-20 05:16 35.26813 -119.80459 24925 ft 437 kts 146°
2026-04-20 05:16 35.24385 -119.78221 24925 ft 437 kts 146°
2026-04-20 05:16 35.21971 -119.75964 24908 ft 438 kts 145°
2026-04-20 05:17 35.19545 -119.73694 24926 ft 439 kts 145°
2026-04-20 05:17 35.17121 -119.71429 24931 ft 439 kts 145°
2026-04-20 05:17 35.14696 -119.69163 24917 ft 439 kts 145°
2026-04-20 05:17 35.12272 -119.66903 24899 ft 437 kts 145°
2026-04-20 05:18 35.09869 -119.64664 24715 ft 433 kts 146°
2026-04-20 05:18 35.08293 -119.63195 24564 ft 427 kts 145°
2026-04-20 05:18 35.05941 -119.61007 24395 ft 420 kts 146°
2026-04-20 05:18 35.03627 -119.58856 24210 ft 422 kts 146°
2026-04-20 05:19 35.01300 -119.56695 24047 ft 420 kts 146°
2026-04-20 05:19 34.98977 -119.54539 23906 ft 419 kts 146°
2026-04-20 05:19 34.96630 -119.52367 23759 ft 425 kts 145°
2026-04-20 05:19 34.94286 -119.50170 23607 ft 425 kts 144°
2026-04-20 05:20 34.91936 -119.48005 23425 ft 422 kts 146°
2026-04-20 05:20 34.89575 -119.45882 23217 ft 420 kts 146°
2026-04-20 05:20 34.87226 -119.43777 22992 ft 419 kts 146°
2026-04-20 05:20 34.84880 -119.41675 22801 ft 418 kts 146°
2026-04-20 05:21 34.82544 -119.39587 22598 ft 416 kts 146°
2026-04-20 05:21 34.80217 -119.37510 22386 ft 414 kts 146°
2026-04-20 05:21 34.77907 -119.35429 22168 ft 412 kts 145°
2026-04-20 05:21 34.75600 -119.33373 21974 ft 410 kts 147°
2026-04-20 05:22 34.73289 -119.31350 21851 ft 410 kts 147°
2026-04-20 05:22 34.70957 -119.29312 21755 ft 415 kts 147°
2026-04-20 05:22 34.68599 -119.27280 21637 ft 414 kts 148°
2026-04-20 05:22 34.66210 -119.25333 21502 ft 414 kts 146°
2026-04-20 05:23 34.64003 -119.23216 21302 ft 404 kts 143°
2026-04-20 05:23 34.61795 -119.21165 21043 ft 396 kts 146°
2026-04-20 05:23 34.59585 -119.19180 20811 ft 394 kts 146°
2026-04-20 05:23 34.57374 -119.17211 20577 ft 393 kts 146°
2026-04-20 05:24 34.55172 -119.15256 20337 ft 391 kts 146°
2026-04-20 05:24 34.52978 -119.13308 20091 ft 389 kts 146°
2026-04-20 05:24 34.48524 -119.09353 19623 ft 386 kts 146°
2026-04-20 05:25 34.46361 -119.07434 19391 ft 384 kts 146°
2026-04-20 05:25 34.44211 -119.05532 19157 ft 382 kts 146°
2026-04-20 05:25 34.42069 -119.03630 18946 ft 381 kts 146°
2026-04-20 05:25 34.39935 -119.01742 18726 ft 379 kts 146°
2026-04-20 05:26 34.37809 -118.99860 18452 ft 378 kts 146°
2026-04-20 05:26 34.35697 -118.97994 18021 ft 375 kts 146°
2026-04-20 05:26 34.33606 -118.96148 17467 ft 367 kts 146°
2026-04-20 05:26 34.31568 -118.94346 16946 ft 359 kts 146°
2026-04-20 05:27 34.29632 -118.92634 16411 ft 336 kts 146°
2026-04-20 05:27 34.27781 -118.91002 15889 ft 326 kts 147°
2026-04-20 05:27 34.25956 -118.89396 15372 ft 323 kts 146°
2026-04-20 05:27 34.24150 -118.87806 14889 ft 319 kts 146°
2026-04-20 05:28 34.22362 -118.86230 14390 ft 317 kts 146°
2026-04-20 05:28 34.20584 -118.84668 13883 ft 315 kts 146°
2026-04-20 05:28 34.18818 -118.83114 13331 ft 313 kts 146°
2026-04-20 05:28 34.17079 -118.81569 12750 ft 302 kts 145°
2026-04-20 05:29 34.15509 -118.79973 12167 ft 289 kts 141°
2026-04-20 05:29 34.13995 -118.78350 11617 ft 289 kts 140°
2026-04-20 05:29 34.12529 -118.76757 11055 ft 277 kts 140°
2026-04-20 05:29 34.11115 -118.75217 10508 ft 272 kts 140°
2026-04-20 05:30 34.09693 -118.73672 10049 ft 277 kts 140°
2026-04-20 05:30 34.08267 -118.72121 9622 ft 275 kts 140°
2026-04-20 05:30 34.06844 -118.70586 9171 ft 274 kts 140°
2026-04-20 05:30 34.05431 -118.69037 8695 ft 276 kts 138°
2026-04-20 05:31 34.04273 -118.67183 8210 ft 280 kts 121°
2026-04-20 05:31 34.03476 -118.65083 7816 ft 279 kts 113°
2026-04-20 05:31 34.02865 -118.62867 7427 ft 277 kts 109°
2026-04-20 05:31 34.02456 -118.60603 7055 ft 276 kts 101°
2026-04-20 05:32 34.02207 -118.58319 6675 ft 274 kts 99°
2026-04-20 05:32 34.01992 -118.56062 6270 ft 263 kts 99°
2026-04-20 05:32 34.01794 -118.53932 6062 ft 251 kts 99°
2026-04-20 05:32 34.01601 -118.51877 5990 ft 241 kts 99°
2026-04-20 05:33 34.01413 -118.49887 5981 ft 240 kts 99°
2026-04-20 05:33 34.01259 -118.47852 6003 ft 248 kts 94°
2026-04-20 05:33 34.01271 -118.45763 6010 ft 250 kts 90°
2026-04-20 05:33 34.01524 -118.43683 6003 ft 252 kts 80°
2026-04-20 05:34 34.01953 -118.41636 5995 ft 252 kts 77°
2026-04-20 05:34 34.02430 -118.39602 5996 ft 252 kts 77°
2026-04-20 05:34 34.03431 -118.35513 5428 ft 253 kts 76°
2026-04-20 05:35 34.03933 -118.33488 5126 ft 251 kts 76°
2026-04-20 05:35 34.04419 -118.31480 4825 ft 249 kts 77°
2026-04-20 05:35 34.04896 -118.29489 4521 ft 246 kts 76°
2026-04-20 05:35 34.05361 -118.27515 4221 ft 240 kts 77°
2026-04-20 05:36 34.05799 -118.25606 3825 ft 233 kts 77°
2026-04-20 05:36 34.06045 -118.23716 3441 ft 228 kts 98°
2026-04-20 05:36 34.05410 -118.21982 3112 ft 230 kts 135°
2026-04-20 05:36 34.04087 -118.21055 3028 ft 214 kts 164°
2026-04-20 05:37 34.02675 -118.20700 2992 ft 205 kts 170°
2026-04-20 05:37 34.01254 -118.20434 2902 ft 210 kts 172°
2026-04-20 05:37 33.99815 -118.20188 2776 ft 208 kts 172°
2026-04-20 05:37 33.98386 -118.19953 2658 ft 206 kts 175°
2026-04-20 05:38 33.96994 -118.20141 2530 ft 205 kts 188°
2026-04-20 05:38 33.95585 -118.20551 1817 ft 210 kts 213°
2026-04-20 05:38 33.94749 -118.21805 2016 ft 198 kts 254°
2026-04-20 05:38 33.94721 -118.23449 2191 ft 201 kts 278°
2026-04-20 05:39 33.94955 -118.25118 2527 ft 203 kts 275°
2026-04-20 05:39 33.94931 -118.26839 2611 ft 206 kts 264°
2026-04-20 05:39 33.94785 -118.28538 2549 ft 196 kts 262°
2026-04-20 05:39 33.94601 -118.30089 2176 ft 181 kts 260°
2026-04-20 05:40 33.94427 -118.31545 1818 ft 169 kts 260°
2026-04-20 05:40 33.94268 -118.32926 1399 ft 163 kts 262°
2026-04-20 05:40 33.94139 -118.34219 1122 ft 151 kts 262°
2026-04-20 05:40 33.94013 -118.35456 745 ft 146 kts 263°
2026-04-20 05:41 33.93897 -118.36674 453 ft 149 kts 263°
2026-04-20 05:41 33.93769 -118.37887 195 ft 140 kts 263°
2026-04-20 05:41 33.93661 -118.38964 90 ft 111 kts 263°
2026-04-20 05:41 33.93598 -118.39672 92 ft 42 kts 272°
2026-04-20 05:42 33.93639 -118.39899 95 ft 11 kts 289°
2026-04-20 05:42 33.93663 -118.39996 94 ft 13 kts 275°
2026-04-20 05:42 33.93657 -118.40105 93 ft 13 kts 264°
2026-04-20 05:42 33.93648 -118.40211 94 ft 8 kts 264°
2026-04-20 05:43 33.93643 -118.40277 93 ft 0 kts 271°
2026-04-20 05:43 33.93643 -118.40288 93 ft 2 kts 268°
2026-04-20 05:43 33.93640 -118.40324 93 ft 8 kts 262°
2026-04-20 05:43 33.93628 -118.40428 93 ft 16 kts 262°
2026-04-20 05:44 33.93612 -118.40577 92 ft 19 kts 262°
2026-04-20 05:44 33.93598 -118.40756 91 ft 22 kts 272°
2026-04-20 05:44 33.93676 -118.40885 95 ft 21 kts 352°
2026-04-20 05:44 33.93791 -118.40824 92 ft 21 kts 79°
2026-04-20 05:45 33.93843 -118.40705 91 ft 15 kts 34°
2026-04-20 05:45 33.93896 -118.40607 93 ft 16 kts 81°
2026-04-20 05:45 33.93914 -118.40441 92 ft 22 kts 83°
2026-04-20 05:45 33.93934 -118.40250 91 ft 25 kts 83°
2026-04-20 05:46 33.93954 -118.40063 92 ft 21 kts 83°
2026-04-20 05:46 33.93985 -118.39888 93 ft 23 kts 56°
2026-04-20 05:46 33.94074 -118.39833 91 ft 12 kts
2026-04-20 05:46 33.94127 -118.39804 93 ft 7 kts 75°
2026-04-20 05:47 33.94133 -118.39769 91 ft 1 kts 84°
2026-04-20 05:47 33.94133 -118.39768 91 ft 0 kts 84°